When you browse on this site, cookies collect data to enhance your experience and personalize the content and advertising you see.
Visit our Privacy Policy to learn more. By continuing to use the site, you agree to this use of cookies and data.
  • en Suisse
  • Liste des pays
  • À 7 jours
  • Température de l'eau
  • Carte météo
  • Widgets météo
  • user-avatar
    Se connecter

    Météo par heure à Szolnok

    Ce jour, 21 Août, Mercredi

    Heure Température Précipitation Vent Pression Humidité
    00:00 +26°C° 0 mm 2 m/s 756 mmHg 53%
    01:00 +26°C° 0 mm 2 m/s 756 mmHg 54%
    02:00 +25°C° 0 mm 1 m/s 756 mmHg 54%
    03:00 +25°C° 0 mm 1 m/s 756 mmHg 54%
    04:00 +24°C° 0 mm 1 m/s 756 mmHg 54%
    05:00 +25°C° 0 mm 1 m/s 756 mmHg 52%
    06:00 +26°C° 0 mm 1 m/s 757 mmHg 50%
    07:00 +27°C° 0 mm 1 m/s 757 mmHg 48%
    08:00 +29°C° 0 mm 2 m/s 757 mmHg 46%
    09:00 +30°C° 0 mm 2 m/s 757 mmHg 43%
    10:00 +32°C° 0 mm 2 m/s 757 mmHg 40%
    11:00 +34°C° 0 mm 2 m/s 757 mmHg 38%
    12:00 +35°C° 0 mm 2 m/s 757 mmHg 35%
    13:00 +36°C° 0 mm 2 m/s 757 mmHg 33%
    14:00 +36°C° 0 mm 2 m/s 756 mmHg 33%
    15:00 +36°C° 0 mm 2 m/s 756 mmHg 33%
    16:00 +36°C° 0 mm 2 m/s 756 mmHg 32%
    17:00 +34°C° 0.1 mm 3 m/s 756 mmHg 41%
    18:00 +32°C° 0.1 mm 4 m/s 757 mmHg 50%
    19:00 +28°C° 0.1 mm 5 m/s 757 mmHg 59%
    20:00 +26°C° 0.2 mm 5 m/s 757 mmHg 63%
    21:00 +23°C° 0.2 mm 6 m/s 757 mmHg 68%
    22:00 +22°C° 0.2 mm 7 m/s 758 mmHg 72%
    23:00 +21°C° 0 mm 7 m/s 758 mmHg 72%

    Demain, 22 Août, Jeudi

    Heure Température Précipitation Vent Pression Humidité
    00:00 +20°C° 0 mm 7 m/s 758 mmHg 72%
    01:00 +20°C° 0 mm 7 m/s 758 mmHg 72%
    02:00 +19°C° 0 mm 6 m/s 758 mmHg 71%
    03:00 +19°C° 0 mm 6 m/s 758 mmHg 71%
    04:00 +19°C° 0 mm 5 m/s 758 mmHg 70%
    05:00 +19°C° 0 mm 6 m/s 758 mmHg 67%
    06:00 +20°C° 0 mm 6 m/s 759 mmHg 64%
    07:00 +20°C° 0 mm 6 m/s 759 mmHg 61%
    08:00 +22°C° 0 mm 6 m/s 759 mmHg 57%
    09:00 +23°C° 0 mm 6 m/s 759 mmHg 53%
    10:00 +26°C° 0 mm 5 m/s 759 mmHg 49%
    11:00 +27°C° 0.1 mm 5 m/s 759 mmHg 47%
    12:00 +28°C° 0.1 mm 5 m/s 758 mmHg 45%
    13:00 +30°C° 0.1 mm 4 m/s 758 mmHg 44%
    14:00 +29°C° 0 mm 4 m/s 758 mmHg 45%
    15:00 +29°C° 0 mm 5 m/s 758 mmHg 45%
    16:00 +29°C° 0 mm 5 m/s 758 mmHg 46%
    17:00 +28°C° 0 mm 4 m/s 758 mmHg 51%
    18:00 +26°C° 0 mm 4 m/s 758 mmHg 56%
    19:00 +23°C° 0 mm 4 m/s 758 mmHg 61%
    20:00 +22°C° 0 mm 3 m/s 758 mmHg 63%
    21:00 +21°C° 0 mm 3 m/s 758 mmHg 65%
    22:00 +21°C° 0 mm 3 m/s 758 mmHg 67%
    23:00 +20°C° 0 mm 3 m/s 758 mmHg 68%

    Après-demain, 23 Août, Vendredi

    Heure Température Précipitation Vent Pression Humidité
    00:00 +20°C° 0 mm 3 m/s 758 mmHg 70%
    01:00 +19°C° 0 mm 3 m/s 758 mmHg 71%
    02:00 +19°C° 0 mm 3 m/s 758 mmHg 72%
    03:00 +19°C° 0 mm 3 m/s 758 mmHg 74%
    04:00 +18°C° 0 mm 3 m/s 758 mmHg 75%
    05:00 +19°C° 0 mm 3 m/s 759 mmHg 72%
    06:00 +20°C° 0 mm 3 m/s 759 mmHg 69%
    07:00 +21°C° 0 mm 3 m/s 759 mmHg 66%
    08:00 +24°C° 0 mm 3 m/s 759 mmHg 60%
    09:00 +26°C° 0 mm 3 m/s 759 mmHg 53%
    10:00 +28°C° 0 mm 3 m/s 759 mmHg 47%
    11:00 +29°C° 0 mm 3 m/s 759 mmHg 44%
    12:00 +31°C° 0 mm 3 m/s 758 mmHg 41%
    13:00 +33°C° 0 mm 3 m/s 758 mmHg 39%
    14:00 +33°C° 0 mm 3 m/s 758 mmHg 39%
    15:00 +33°C° 0 mm 3 m/s 757 mmHg 40%
    16:00 +33°C° 0 mm 4 m/s 757 mmHg 40%
    17:00 +30°C° 0 mm 3 m/s 757 mmHg 47%
    18:00 +28°C° 0 mm 3 m/s 757 mmHg 53%
    19:00 +26°C° 0 mm 3 m/s 757 mmHg 60%
    20:00 +25°C° 0 mm 3 m/s 757 mmHg 64%
    21:00 +24°C° 0 mm 3 m/s 757 mmHg 69%
    22:00 +24°C° 0 mm 3 m/s 757 mmHg 73%
    23:00 +22°C° 0 mm 3 m/s 757 mmHg 74%

    24 Août, Samedi

    Heure Température Précipitation Vent Pression Humidité
    00:00 +21°C° 0 mm 3 m/s 757 mmHg 75%
    01:00 +21°C° 0 mm 3 m/s 757 mmHg 76%
    02:00 +20°C° 0 mm 3 m/s 757 mmHg 77%
    03:00 +20°C° 0 mm 3 m/s 757 mmHg 78%
    04:00 +19°C° 0 mm 3 m/s 757 mmHg 79%
    05:00 +20°C° 0 mm 3 m/s 757 mmHg 76%
    06:00 +21°C° 0 mm 3 m/s 757 mmHg 73%
    07:00 +22°C° 0 mm 4 m/s 757 mmHg 70%
    08:00 +25°C° 0 mm 3 m/s 757 mmHg 62%
    09:00 +28°C° 0 mm 3 m/s 757 mmHg 55%
    10:00 +30°C° 0 mm 3 m/s 757 mmHg 48%
    11:00 +31°C° 0 mm 3 m/s 757 mmHg 44%
    12:00 +34°C° 0 mm 2 m/s 756 mmHg 40%
    13:00 +35°C° 0 mm 2 m/s 756 mmHg 35%
    14:00 +35°C° 0 mm 2 m/s 755 mmHg 34%
    15:00 +36°C° 0 mm 2 m/s 755 mmHg 33%
    16:00 +36°C° 0 mm 2 m/s 755 mmHg 31%
    17:00 +34°C° 0 mm 3 m/s 755 mmHg 38%
    18:00 +31°C° 0 mm 3 m/s 755 mmHg 44%
    19:00 +28°C° 0 mm 3 m/s 755 mmHg 51%
    20:00 +27°C° 0 mm 3 m/s 755 mmHg 54%
    21:00 +27°C° 0 mm 2 m/s 755 mmHg 58%
    22:00 +26°C° 0 mm 2 m/s 756 mmHg 61%
    23:00 +25°C° 0 mm 2 m/s 755 mmHg 63%

    25 Août, Dimanche

    Heure Température Précipitation Vent Pression Humidité
    00:00 +25°C° 0 mm 2 m/s 755 mmHg 65%
    01:00 +24°C° 0 mm 2 m/s 755 mmHg 67%
    02:00 +24°C° 0 mm 2 m/s 755 mmHg 69%
    03:00 +22°C° 0 mm 3 m/s 755 mmHg 71%
    04:00 +22°C° 0 mm 3 m/s 755 mmHg 72%
    05:00 +22°C° 0.5 mm 3 m/s 755 mmHg 72%
    06:00 +24°C° 0.5 mm 3 m/s 755 mmHg 72%
    07:00 +25°C° 0.5 mm 3 m/s 755 mmHg 72%
    08:00 +27°C° 0.2 mm 3 m/s 755 mmHg 65%
    09:00 +29°C° 0.2 mm 3 m/s 755 mmHg 58%
    10:00 +31°C° 0.2 mm 3 m/s 756 mmHg 51%
    11:00 +32°C° 0 mm 2 m/s 755 mmHg 46%
    12:00 +34°C° 0 mm 2 m/s 755 mmHg 40%
    13:00 +36°C° 0 mm 2 m/s 754 mmHg 35%
    14:00 +36°C° 0 mm 2 m/s 754 mmHg 34%
    15:00 +36°C° 0 mm 2 m/s 754 mmHg 33%
    16:00 +36°C° 0 mm 2 m/s 753 mmHg 32%
    17:00 +34°C° 0.1 mm 2 m/s 753 mmHg 38%
    18:00 +31°C° 0.1 mm 3 m/s 754 mmHg 44%
    19:00 +29°C° 0.1 mm 3 m/s 754 mmHg 50%
    20:00 +28°C° 0.1 mm 3 m/s 754 mmHg 54%
    21:00 +27°C° 0.1 mm 3 m/s 754 mmHg 59%
    22:00 +26°C° 0.1 mm 3 m/s 755 mmHg 63%
    23:00 +25°C° 0.2 mm 2 m/s 755 mmHg 66%

    26 Août, Lundi

    Heure Température Précipitation Vent Pression Humidité
    00:00 +25°C° 0.2 mm 1 m/s 755 mmHg 69%
    01:00 +24°C° 0.2 mm 1 m/s 755 mmHg 72%
    02:00 +24°C° 0 mm 1 m/s 754 mmHg 74%
    03:00 +23°C° 0 mm 2 m/s 754 mmHg 76%
    04:00 +22°C° 0 mm 3 m/s 754 mmHg 78%
    05:00 +24°C° 0 mm 3 m/s 754 mmHg 75%
    06:00 +24°C° 0 mm 3 m/s 755 mmHg 73%
    07:00 +25°C° 0 mm 3 m/s 755 mmHg 70%
    08:00 +27°C° 0 mm 2 m/s 755 mmHg 62%
    09:00 +29°C° 0 mm 2 m/s 755 mmHg 54%
    10:00 +31°C° 0 mm 2 m/s 755 mmHg 45%
    11:00 +34°C° 0 mm 3 m/s 755 mmHg 41%
    12:00 +35°C° 0 mm 3 m/s 755 mmHg 36%
    13:00 +36°C° 0 mm 3 m/s 755 mmHg 32%
    14:00 +36°C° 0 mm 3 m/s 754 mmHg 31%
    15:00 +36°C° 0 mm 2 m/s 754 mmHg 30%
    16:00 +35°C° 0 mm 1 m/s 754 mmHg 30%
    17:00 +33°C° 0.1 mm 1 m/s 754 mmHg 34%
    18:00 +32°C° 0.1 mm 1 m/s 754 mmHg 39%
    19:00 +30°C° 0.1 mm 1 m/s 754 mmHg 43%
    20:00 +28°C° 0.3 mm 2 m/s 754 mmHg 51%
    21:00 +26°C° 0.3 mm 2 m/s 755 mmHg 59%
    22:00 +24°C° 0.3 mm 2 m/s 755 mmHg 66%
    23:00 +24°C° 0.2 mm 2 m/s 755 mmHg 70%
    Voir plus